This is the latest recevied weather packets stored in our database for station/object K7UHP. If no packets are shown the sender has not sent any weather packets the latest 1 day(s).
| Time | Temp. | Humidity | Pressure | Rain* | Wind** | Luminosity | Snow |
|---|---|---|---|---|---|---|---|
| 1778005047 | 13.89° C | 48% | 1011.5 hPa | 0 mm | 1.34 m/s, 195° | - | - |
| 1778004417 | 13.89° C | 48% | 1011.5 hPa | 0 mm | 2.24 m/s, 205° | - | - |
| 1778003787 | 13.89° C | 49% | 1011.3 hPa | 0 mm | 2.68 m/s, 187° | - | - |
| 1778003187 | 14.44° C | 48% | 1011.4 hPa | 0 mm | 2.68 m/s, 224° | - | - |
| 1778002557 | 14.44° C | 47% | 1011.3 hPa | 0 mm | 3.58 m/s, 214° | - | - |
| 1778001927 | 15° C | 47% | 1011.2 hPa | 0 mm | 2.68 m/s, 206° | - | - |
| 1778001327 | 14.44° C | 48% | 1011.3 hPa | 0 mm | 2.68 m/s, 216° | - | - |
| 1778000727 | 14.44° C | 47% | 1011.2 hPa | 0 mm | 2.68 m/s, 217° | - | - |
| 1778000127 | 13.89° C | 48% | 1011.1 hPa | 0 mm | 3.13 m/s, 179° | - | - |
| 1777999497 | 13.89° C | 47% | 1011.2 hPa | 0 mm | 3.58 m/s, 167° | - | - |
| 1777998897 | 13.89° C | 48% | 1011.1 hPa | 0 mm | 3.13 m/s, 196° | - | - |
| 1777998297 | 13.89° C | 48% | 1011.1 hPa | 0 mm | 3.13 m/s, 177° | - | - |
| 1777997697 | 13.89° C | 48% | 1011 hPa | 0 mm | 1.34 m/s, 182° | - | - |
| 1777997067 | 13.89° C | 49% | 1011 hPa | 0 mm | 2.24 m/s, 179° | - | - |
| 1777996437 | 13.89° C | 49% | 1011 hPa | 0 mm | 2.68 m/s, 170° | - | - |
| 1777995836 | 13.33° C | 50% | 1010.9 hPa | 0 mm | 2.68 m/s, 149° | - | - |
| 1777995236 | 13.33° C | 51% | 1010.8 hPa | 0 mm | 2.24 m/s, 177° | - | - |
| 1777994635 | 13.33° C | 53% | 1010.8 hPa | 0 mm | 2.24 m/s, 158° | - | - |
| 1777994034 | 13.33° C | 53% | 1010.7 hPa | 0 mm | 0.89 m/s, 209° | - | - |
| 1777993433 | 13.89° C | 51% | 1010.7 hPa | 0 mm | 0.45 m/s, 180° | - | - |
| 1777992833 | 13.89° C | 46% | 1010.7 hPa | 0 mm | 2.24 m/s, 218° | - | - |
| 1777992232 | 14.44° C | 47% | 1010.5 hPa | 0 mm | 2.24 m/s, 214° | - | - |
| 1777991631 | 14.44° C | 45% | 1010.5 hPa | 0 mm | 0.89 m/s, 193° | - | - |
| 1777991030 | 14.44° C | 44% | 1010.4 hPa | 0 mm | 2.68 m/s, 177° | - | - |
| 1777990430 | 14.44° C | 45% | 1010.4 hPa | 0 mm | 0.89 m/s, 167° | - | - |
* Rain latest hour (hover to see other rain measurements)
** Current wind speed in m/s (hover to see current wind gust speed)